| time (UTC) | temp C | wind direction | speed KPH | gust KPH | rain 1hr cm | rain 24hr cm | rain mn cm | humidity % | barometer mb |
| 20260906104511 | -17 | 0.0 | 0.0 | 0.00 | 0.00 | 0.00 | 1015.2 | ||
| 20260906103008 | -17 | 0.0 | 0.0 | 0.00 | 0.00 | 0.00 | 1015.1 | ||
| 20260906101547 | 20 | 127 | 4.8 | 12.9 | 0.00 | 0.00 | 0.00 | 76 | 1015.1 |
| 20260906100044 | 20 | 97 | 4.8 | 11.3 | 0.00 | 0.00 | 0.00 | 76 | 1015.1 |
| 20260906094522 | 21 | 121 | 6.4 | 12.9 | 0.00 | 0.00 | 0.00 | 78 | 1015.0 |
| 20260906093024 | 21 | 132 | 9.7 | 17.7 | 0.00 | 0.00 | 0.00 | 76 | 1014.8 |
| 20260906091501 | 21 | 148 | 4.8 | 12.9 | 0.00 | 0.00 | 0.00 | 75 | 1014.7 |
| 20260906090100 | 21 | 173 | 3.2 | 11.3 | 0.00 | 0.00 | 0.00 | 73 | 1014.7 |
| 20260906090001 | 21 | 131 | 3.2 | 11.3 | 0.00 | 0.00 | 0.00 | 74 | 1014.6 |
| 20260906084542 | 21 | 150 | 4.8 | 14.5 | 0.00 | 0.00 | 0.00 | 74 | 1014.7 |
| 20260906083041 | 21 | 136 | 6.4 | 17.7 | 0.00 | 0.00 | 0.00 | 75 | 1014.6 |
| 20260906081525 | 21 | 130 | 9.7 | 16.1 | 0.00 | 0.00 | 0.00 | 77 | 1014.3 |
| 20260906080023 | 21 | 148 | 8.0 | 17.7 | 0.00 | 0.00 | 0.00 | 78 | 1014.4 |
| 20260906074502 | 21 | 138 | 11.3 | 17.7 | 0.00 | 0.00 | 0.00 | 77 | 1014.4 |
| 20260906073002 | 21 | 113 | 12.9 | 17.7 | 0.00 | 0.00 | 0.00 | 73 | 1014.7 |
| 20260906071546 | 21 | 138 | 8.0 | 16.1 | 0.00 | 0.00 | 0.00 | 70 | 1014.8 |
| 20260906070043 | 21 | 124 | 6.4 | 12.9 | 0.00 | 0.00 | 0.00 | 62 | 1014.9 |
| 20260906064533 | 21 | 113 | 12.9 | 20.9 | 0.00 | 0.00 | 0.00 | 56 | 1014.8 |
| 20260906063023 | 21 | 113 | 9.7 | 16.1 | 0.00 | 0.00 | 0.00 | 54 | 1014.9 |
| 20260906061507 | 21 | 102 | 9.7 | 14.5 | 0.00 | 0.00 | 0.00 | 53 | 1014.7 |
| 20260906060001 | 21 | 95 | 8.0 | 14.5 | 0.00 | 0.00 | 0.00 | 55 | 1014.9 |
| 20260906054541 | 21 | 97 | 8.0 | 11.3 | 0.00 | 0.00 | 0.00 | 58 | 1014.9 |
| 20260906053040 | 21 | 86 | 4.8 | 9.7 | 0.00 | 0.00 | 0.00 | 59 | 1014.9 |
| 20260906051526 | 21 | 99 | 6.4 | 12.9 | 0.00 | 0.00 | 0.00 | 60 | 1014.6 |
| 20260906050024 | 21 | 104 | 3.2 | 8.0 | 0.00 | 0.00 | 0.00 | 62 | 1014.6 |
| 20260906044522 | 21 | 103 | 4.8 | 8.0 | 0.00 | 0.00 | 0.00 | 58 | 1014.6 |
| 20260906043024 | 21 | 103 | 6.4 | 11.3 | 0.00 | 0.00 | 0.00 | 60 | 1014.5 |
| 20260906041519 | 21 | 92 | 4.8 | 9.7 | 0.00 | 0.00 | 0.00 | 62 | 1014.5 |
| 20260906040019 | 21 | 105 | 6.4 | 9.7 | 0.00 | 0.00 | 0.00 | 65 | 1014.5 |
| 20260906034514 | 22 | 85 | 8.0 | 11.3 | 0.00 | 0.00 | 0.00 | 69 | 1014.7 |
| 20260906033012 | 22 | 97 | 4.8 | 16.1 | 0.00 | 0.00 | 0.00 | 75 | 1014.6 |
| 20260906031554 | 22 | 130 | 8.0 | 12.9 | 0.00 | 0.00 | 0.00 | 74 | 1014.6 |
| 20260906030051 | 22 | 98 | 8.0 | 11.3 | 0.00 | 0.00 | 0.00 | 74 | 1014.7 |
| 20260906024532 | 22 | 96 | 4.8 | 8.0 | 0.00 | 0.00 | 0.00 | 78 | 1014.6 |
| 20260906023028 | 22 | 98 | 4.8 | 9.7 | 0.00 | 0.00 | 0.00 | 78 | 1014.3 |
| 20260906021520 | 22 | 107 | 4.8 | 9.7 | 0.00 | 0.00 | 0.00 | 78 | 1014.2 |
| 20260906020013 | 22 | 131 | 4.8 | 11.3 | 0.00 | 0.00 | 0.00 | 77 | 1014.2 |
| 20260906014554 | 22 | 125 | 6.4 | 9.7 | 0.00 | 0.00 | 0.00 | 77 | 1013.9 |
| 20260906013053 | 23 | 95 | 4.8 | 9.7 | 0.00 | 0.00 | 0.00 | 80 | 1013.7 |
| 20260906011534 | 23 | 92 | 3.2 | 6.4 | 0.00 | 0.00 | 0.00 | 83 | 1013.6 |
| 20260906010032 | 23 | 96 | 4.8 | 11.3 | 0.00 | 0.00 | 0.00 | 85 | 1013.4 |
| 20260906004515 | 23 | 98 | 6.4 | 9.7 | 0.00 | 0.00 | 0.00 | 86 | 1013.2 |
| 20260906003021 | 24 | 94 | 8.0 | 17.7 | 0.00 | 0.00 | 0.00 | 87 | 1013.1 |
| 20260906001557 | 24 | 106 | 4.8 | 12.9 | 0.00 | 0.00 | 0.00 | 87 | 1013.0 |
| 20260906000056 | 25 | 95 | 8.0 | 14.5 | 0.00 | 0.00 | 0.00 | 87 | 1013.0 |
| 20260905234541 | 25 | 106 | 8.0 | 12.9 | 0.00 | 0.00 | 0.00 | 87 | 1012.8 |
| 20260905233037 | 25 | 105 | 3.2 | 12.9 | 0.00 | 0.00 | 0.00 | 87 | 1012.8 |
| 20260905231519 | 26 | 103 | 8.0 | 12.9 | 0.00 | 0.00 | 0.00 | 87 | 1012.8 |
| 20260905230018 | 26 | 101 | 6.4 | 16.1 | 0.00 | 0.00 | 0.00 | 86 | 1012.6 |
| 20260905224619 | 26 | 94 | 11.3 | 16.1 | 0.00 | 0.00 | 0.00 | 85 | 1012.5 |
| 20260905223059 | 26 | 113 | 6.4 | 12.9 | 0.00 | 0.00 | 0.00 | 86 | 1012.6 |
| 20260905221603 | 26 | 115 | 6.4 | 14.5 | 0.00 | 0.00 | 0.00 | 86 | 1012.3 |
| 20260905220041 | 26 | 137 | 9.7 | 17.7 | 0.00 | 0.00 | 0.00 | 86 | 1012.0 |
| 20260905214540 | 27 | 103 | 8.0 | 17.7 | 0.00 | 0.00 | 0.00 | 86 | 1011.8 |
| 20260905213025 | 27 | 96 | 9.7 | 17.7 | 0.00 | 0.00 | 0.00 | 86 | 1011.9 |
| 20260905211524 | 27 | 122 | 4.8 | 16.1 | 0.00 | 0.00 | 0.00 | 86 | 1012.4 |
| 20260905210023 | 27 | 99 | 8.0 | 14.5 | 0.00 | 0.00 | 0.00 | 86 | 1012.6 |
| 20260905204525 | 27 | 102 | 6.4 | 11.3 | 0.00 | 0.00 | 0.00 | 85 | 1012.6 |
| 20260905203023 | 27 | 92 | 3.2 | 14.5 | 0.00 | 0.00 | 0.00 | 84 | 1012.9 |
| 20260905200024 | 26 | 98 | 4.8 | 12.9 | 0.00 | 0.00 | 0.00 | 86 | 1012.3 |
| 20260905194516 | 25 | 95 | 0.0 | 16.1 | 0.00 | 0.00 | 0.00 | 87 | 1012.4 |
| 20260905193013 | 25 | 95 | 12.9 | 29.0 | 0.00 | 0.00 | 0.00 | 87 | 1012.0 |
| 20260905190011 | 25 | 82 | 20.9 | 33.8 | 0.00 | 0.00 | 0.00 | 87 | 1011.5 |
| 20260905184519 | 25 | 82 | 20.9 | 32.2 | 0.00 | 0.00 | 0.00 | 87 | 1012.1 |
| 20260905183006 | 24 | 209 | 8.0 | 30.6 | 0.00 | 0.00 | 0.00 | 87 | 1012.5 |
| 20260905180044 | 23 | 74 | 22.5 | 29.0 | 0.00 | 0.00 | 0.00 | 85 | 1012.8 |
| 20260905174540 | 23 | 63 | 16.1 | 24.1 | 0.00 | 0.00 | 0.00 | 83 | 1013.3 |
| 20260905173015 | 23 | 100 | 14.5 | 20.9 | 0.00 | 0.00 | 0.00 | 70 | 1013.8 |
| 20260905171514 | 22 | 94 | 12.9 | 19.3 | 0.00 | 0.00 | 0.00 | 64 | 1014.1 |
| 20260905170100 | 22 | 94 | 9.7 | 16.1 | 0.00 | 0.00 | 0.00 | 66 | 1014.4 |
| 20260905164555 | 22 | 60 | 8.0 | 11.3 | 0.00 | 0.00 | 0.00 | 65 | 1014.6 |
| 20260905163039 | 22 | 70 | 4.8 | 8.0 | 0.00 | 0.00 | 0.00 | 67 | 1015.1 |
| 20260905161536 | 22 | 87 | 0.0 | 1.6 | 0.00 | 0.00 | 0.00 | 64 | 1015.3 |
| 20260905160021 | 22 | 322 | 0.0 | 3.2 | 0.00 | 0.00 | 0.00 | 57 | 1015.3 |
| 20260905154518 | 21 | 286 | 0.0 | 8.0 | 0.00 | 0.00 | 0.00 | 54 | 1015.5 |
| 20260905153006 | 21 | 290 | 6.4 | 14.5 | 0.00 | 0.00 | 0.00 | 58 | 1015.6 |
| 20260905151508 | 21 | 311 | 0.0 | 0.0 | 0.00 | 0.00 | 0.00 | 58 | 1014.7 |
| 20260905150004 | 21 | 307 | 0.0 | 1.6 | 0.00 | 0.00 | 0.00 | 53 | 1014.8 |
| 20260905144511 | 21 | 307 | 0.0 | 1.6 | 0.00 | 0.00 | 0.00 | 51 | 1014.6 |
| 20260905143059 | 21 | 105 | 0.0 | 9.7 | 0.00 | 0.00 | 0.00 | 50 | 1014.2 |
| 20260905141609 | 21 | 83 | 1.6 | 8.0 | 0.00 | 0.00 | 0.00 | 50 | 1014.0 |
| 20260905140103 | 21 | 64 | 3.2 | 8.0 | 0.00 | 0.00 | 0.00 | 49 | 1013.6 |
| 20260905134555 | 21 | 345 | 0.0 | 0.0 | 0.00 | 0.00 | 0.00 | 48 | 1013.7 |
| 20260905133042 | 21 | 345 | 0.0 | 0.0 | 0.00 | 0.00 | 0.00 | 48 | 1013.6 |
| 20260905131542 | 21 | 345 | 0.0 | 0.0 | 0.00 | 0.00 | 0.00 | 48 | 1013.5 |
| 20260905130041 | -17 | 0.0 | 0.0 | 0.00 | 0.00 | 0.00 | 1013.5 | ||
| 20260905124536 | -17 | 0.0 | 0.0 | 0.00 | 0.00 | 0.00 | 1013.1 | ||
| 20260905123030 | -17 | 0.0 | 0.0 | 0.00 | 0.00 | 0.00 | 1012.7 | ||
| 20260905121525 | -17 | 0.0 | 0.0 | 0.00 | 0.00 | 0.00 | 1012.4 | ||
| 20260905120023 | -17 | 0.0 | 0.0 | 0.00 | 0.00 | 0.00 | 1012.1 | ||
| 20260905114518 | -17 | 0.0 | 0.0 | 0.00 | 0.00 | 0.00 | 1011.9 | ||
| 20260905113055 | -17 | 0.0 | 0.0 | 0.00 | 0.00 | 0.00 | 1011.7 | ||
| 20260905111550 | -17 | 0.0 | 0.0 | 0.00 | 0.00 | 0.00 | 1012.0 | ||
| 20260905110029 | -17 | 0.0 | 0.0 | 0.00 | 0.00 | 0.00 | 1011.9 |